GAF041 ETHL-OJAM

Flight info

Callsign GAF041
Flight time N/A
Altitude 31000
Route ATMAX Y100 MERSI T468 BETOS DCT ZAG DCT VABEK UL603 OLOTA DCT RUGAS UN128 LMO UN127 IMR UT489 LAMSA UT39 TOMBI DCT IDAKU L35 PIKOG L609 VOLFO N134 OSAMA
Aircraft A400/H-SDE2E3FGHIJ4J5M1RWXY/LB1D1

Departure

Time 2026-04-28 13:52
Airport Laupheim Air Base (ETHL)

Arrival

Time N/A
Airport Marka International (Amman Civil) Airport (OJAM)
Time Latitude Longitude Altitude Speed Heading
2026-04-28 13:34 48.21852 9.90438 1781 ft 0 kts
2026-04-28 13:47 48.21863 9.90438 1781 ft 3 kts 357°
2026-04-28 13:48 48.21887 9.90379 1781 ft 11 kts 284°
2026-04-28 13:48 48.21894 9.90261 1781 ft 12 kts 270°
2026-04-28 13:48 48.21902 9.90144 1781 ft 12 kts 289°
2026-04-28 13:48 48.21952 9.90061 1782 ft 11 kts 317°
2026-04-28 13:49 48.22016 9.90007 1780 ft 10 kts 348°
2026-04-28 13:49 48.22041 9.90013 1779 ft 2 kts 27°
2026-04-28 13:49 48.22050 9.90021 1781 ft 0 kts 32°
2026-04-28 13:49 48.22051 9.90024 1782 ft 0 kts 47°
2026-04-28 13:50 48.22048 9.90038 1781 ft 3 kts 101°
2026-04-28 13:50 48.22046 9.90054 1781 ft 0 kts 98°
2026-04-28 13:51 48.22046 9.90056 1781 ft 6 kts 98°
2026-04-28 13:51 48.22022 9.90666 1784 ft 110 kts 92°
2026-04-28 13:52 48.21967 9.92226 1849 ft 178 kts 94°
2026-04-28 13:52 48.21884 9.94150 2476 ft 190 kts 94°
2026-04-28 13:52 48.21793 9.96163 3186 ft 201 kts 93°
2026-04-28 13:52 48.21739 9.98350 3796 ft 218 kts 91°
2026-04-28 13:53 48.21684 10.00690 4430 ft 229 kts 92°
2026-04-28 13:53 48.21632 10.03111 5126 ft 235 kts 92°
2026-04-28 13:53 48.21578 10.05563 5830 ft 236 kts 92°
2026-04-28 13:53 48.21523 10.08025 6594 ft 238 kts 92°
2026-04-28 13:54 48.21468 10.10513 7305 ft 240 kts 92°
2026-04-28 13:54 48.21412 10.13022 8016 ft 242 kts 92°
2026-04-28 13:54 48.21355 10.15557 8704 ft 245 kts 92°
2026-04-28 13:54 48.21184 10.18100 9394 ft 246 kts 105°
2026-04-28 13:55 48.20548 10.20485 10081 ft 248 kts 118°
2026-04-28 13:55 48.19677 10.22732 10745 ft 251 kts 123°
2026-04-28 13:55 48.18678 10.24879 11424 ft 253 kts 127°
2026-04-28 13:55 48.17599 10.26994 12103 ft 256 kts 129°
2026-04-28 13:56 48.16492 10.29092 12784 ft 259 kts 129°
2026-04-28 13:56 48.15369 10.31215 13468 ft 261 kts 129°
2026-04-28 13:56 48.14242 10.33368 14137 ft 264 kts 128°
2026-04-28 13:56 48.13112 10.35549 14822 ft 267 kts 128°
2026-04-28 13:57 48.11976 10.37767 15504 ft 270 kts 128°
2026-04-28 13:57 48.10834 10.40010 16174 ft 272 kts 128°
2026-04-28 13:57 48.09680 10.42280 16864 ft 276 kts 128°
2026-04-28 13:57 48.08509 10.44587 17560 ft 281 kts 128°
2026-04-28 13:58 48.07304 10.46958 18247 ft 292 kts 128°
2026-04-28 13:58 48.06054 10.49414 18938 ft 303 kts 128°
2026-04-28 13:58 48.04755 10.51964 19630 ft 313 kts 128°
2026-04-28 13:58 48.03421 10.54579 20315 ft 320 kts 128°
2026-04-28 13:59 48.02058 10.57249 20989 ft 327 kts 128°
2026-04-28 13:59 48.00665 10.59975 21671 ft 332 kts 128°
2026-04-28 13:59 47.99251 10.62739 22352 ft 337 kts 128°
2026-04-28 13:59 47.97820 10.65532 23033 ft 341 kts 128°
2026-04-28 14:00 47.96405 10.68386 23721 ft 343 kts 124°
2026-04-28 14:00 47.95201 10.71467 24375 ft 345 kts 116°
2026-04-28 14:00 47.94356 10.74822 25049 ft 346 kts 104°
2026-04-28 14:00 47.94025 10.78368 25718 ft 347 kts 90°
2026-04-28 14:01 47.94248 10.81946 26391 ft 346 kts 81°
2026-04-28 14:01 47.94722 10.85463 27062 ft 346 kts 77°
2026-04-28 14:01 47.95318 10.88932 27723 ft 345 kts 75°
2026-04-28 14:01 47.95967 10.92369 28401 ft 343 kts 74°
2026-04-28 14:02 47.96627 10.95785 29073 ft 342 kts 74°
2026-04-28 14:02 47.97275 10.99174 29737 ft 339 kts 74°
2026-04-28 14:02 47.97920 11.02559 30403 ft 337 kts 72°
2026-04-28 14:02 47.98703 11.05776 30849 ft 342 kts 69°
2026-04-28 14:03 47.99594 11.09123 30997 ft 355 kts 68°
2026-04-28 14:03 48.00551 11.12609 31011 ft 370 kts 68°
2026-04-28 14:03 48.01560 11.16221 31011 ft 382 kts 67°
2026-04-28 14:03 48.02601 11.19927 31006 ft 393 kts 67°
2026-04-28 14:04 48.04526 11.27771 31007 ft 409 kts 77°
2026-04-28 14:04 48.04859 11.36238 30996 ft 411 kts 98°
2026-04-28 14:05 48.04236 11.40368 30997 ft 410 kts 109°
2026-04-28 14:05 48.03095 11.44291 31004 ft 410 kts 117°
2026-04-28 14:05 48.00268 11.51693 31000 ft 410 kts 122°
2026-04-28 14:06 47.97275 11.58934 31002 ft 410 kts 122°
2026-04-28 14:06 47.94283 11.66186 31003 ft 410 kts 122°
2026-04-28 14:07 47.91319 11.73459 31003 ft 410 kts 121°
2026-04-28 14:07 47.88861 11.79513 31001 ft 410 kts 121°
2026-04-28 14:08 47.85908 11.86778 30999 ft 410 kts 121°
2026-04-28 14:08 47.82953 11.94024 31002 ft 410 kts 122°
2026-04-28 14:09 47.79982 12.01287 31003 ft 410 kts 122°
2026-04-28 14:09 47.77013 12.08525 30999 ft 410 kts 122°
2026-04-28 14:10 47.74032 12.15771 31001 ft 410 kts 122°
2026-04-28 14:10 47.71052 12.22994 30999 ft 410 kts 122°
2026-04-28 14:11 47.68066 12.30216 30998 ft 410 kts 122°
2026-04-28 14:11 47.66571 12.33823 31411 ft 410 kts 123°
2026-04-28 14:11 47.65043 12.37499 31213 ft 429 kts 124°
2026-04-28 14:12 47.63437 12.41347 31081 ft 445 kts 124°
2026-04-28 14:12 47.61792 12.45292 31079 ft 453 kts 125°
2026-04-28 14:12 47.58475 12.53258 31064 ft 455 kts 124°
2026-04-28 14:13 47.55137 12.61254 31070 ft 457 kts 124°
2026-04-28 14:13 47.51792 12.69237 31071 ft 457 kts 124°
2026-04-28 14:14 47.48430 12.77227 31062 ft 457 kts 124°
2026-04-28 14:14 47.45052 12.85225 31077 ft 459 kts 124°
2026-04-28 14:15 47.41675 12.93204 31072 ft 458 kts 124°
2026-04-28 14:15 47.38298 13.01167 31075 ft 457 kts 124°
2026-04-28 14:16 47.34916 13.09117 31072 ft 458 kts 125°
2026-04-28 14:16 47.31523 13.17064 31078 ft 458 kts 125°
2026-04-28 14:17 47.28125 13.25000 31078 ft 458 kts 125°
2026-04-28 14:17 47.24726 13.32916 31077 ft 457 kts 125°
2026-04-28 14:18 47.21322 13.40822 31077 ft 457 kts 125°
2026-04-28 14:18 47.17912 13.48720 31079 ft 457 kts 125°
2026-04-28 14:19 47.14503 13.56590 31078 ft 456 kts 126°
2026-04-28 14:19 47.11113 13.64396 31074 ft 456 kts 125°
2026-04-28 14:20 47.07694 13.72244 31081 ft 457 kts 125°
2026-04-28 14:20 47.04265 13.80093 31082 ft 457 kts 125°
2026-04-28 14:21 47.00827 13.87941 31078 ft 457 kts 125°
2026-04-28 14:21 46.97385 13.95777 31073 ft 457 kts 125°
2026-04-28 14:22 46.93942 14.03595 31071 ft 456 kts 125°
2026-04-28 14:22 46.90495 14.11396 31069 ft 456 kts 125°
2026-04-28 14:23 46.87044 14.19185 31066 ft 456 kts 125°
2026-04-28 14:23 46.83586 14.26967 31065 ft 457 kts 125°
2026-04-28 14:24 46.80124 14.34738 31070 ft 456 kts 125°
2026-04-28 14:24 46.76659 14.42494 31071 ft 456 kts 125°
2026-04-28 14:25 46.73193 14.50230 31077 ft 456 kts 125°
2026-04-28 14:25 46.69719 14.57962 31073 ft 456 kts 125°
2026-04-28 14:26 46.66243 14.65676 31071 ft 456 kts 125°
2026-04-28 14:26 46.62759 14.73386 31071 ft 456 kts 125°
2026-04-28 14:27 46.59269 14.81091 31076 ft 456 kts 126°
2026-04-28 14:27 46.55773 14.88786 31078 ft 456 kts 126°
2026-04-28 14:28 46.52270 14.96474 31081 ft 457 kts 126°
2026-04-28 14:28 46.48758 15.04163 31085 ft 456 kts 126°
2026-04-28 14:29 46.45247 15.11828 31091 ft 457 kts 126°
2026-04-28 14:29 46.41716 15.19514 31090 ft 457 kts 126°
2026-04-28 14:30 46.38186 15.27178 31093 ft 457 kts 126°
2026-04-28 14:30 46.34651 15.34832 31093 ft 457 kts 126°
2026-04-28 14:31 46.31111 15.42474 31095 ft 457 kts 126°
2026-04-28 14:31 46.27570 15.50100 31095 ft 457 kts 126°
2026-04-28 14:32 46.24021 15.57720 31098 ft 457 kts 126°
2026-04-28 14:32 46.20469 15.65328 31096 ft 457 kts 126°
2026-04-28 14:33 46.16907 15.72935 31094 ft 457 kts 126°
2026-04-28 14:33 46.13341 15.80532 31096 ft 457 kts 126°
2026-04-28 14:34 46.08004 15.91861 31096 ft 457 kts 126°
2026-04-28 14:35 46.04426 15.99432 31096 ft 457 kts 126°
2026-04-28 14:35 46.00851 16.06974 31098 ft 456 kts 126°
2026-04-28 14:36 45.97270 16.14510 31098 ft 456 kts 126°
2026-04-28 14:36 45.93682 16.22040 31096 ft 456 kts 126°
2026-04-28 14:37 45.90069 16.29526 31089 ft 455 kts 130°
2026-04-28 14:37 45.85993 16.36454 31091 ft 454 kts 134°
2026-04-28 14:38 45.81803 16.43224 31092 ft 454 kts 134°
2026-04-28 14:38 45.77588 16.49950 31093 ft 453 kts 135°
2026-04-28 14:39 45.73377 16.56667 31088 ft 453 kts 135°
2026-04-28 14:39 45.69175 16.63373 31082 ft 453 kts 134°
2026-04-28 14:40 45.64969 16.70074 31082 ft 452 kts 135°
2026-04-28 14:40 45.60765 16.76756 31079 ft 452 kts 135°
2026-04-28 14:41 45.56557 16.83427 31078 ft 452 kts 135°
2026-04-28 14:41 45.52353 16.90076 31075 ft 451 kts 135°
2026-04-28 14:42 45.48143 16.96719 31072 ft 451 kts 135°
2026-04-28 14:42 45.43931 17.03350 31072 ft 451 kts 135°
2026-04-28 14:43 45.39723 17.09956 31074 ft 450 kts 135°
2026-04-28 14:43 45.35507 17.16561 31068 ft 450 kts 135°
2026-04-28 14:44 45.31298 17.23138 31072 ft 450 kts 135°
2026-04-28 14:44 45.27083 17.29709 31074 ft 450 kts 135°
2026-04-28 14:45 45.22867 17.36266 31075 ft 450 kts 135°
2026-04-28 14:45 45.18673 17.42772 31074 ft 449 kts 135°
2026-04-28 14:46 45.14451 17.49308 31072 ft 449 kts 135°
2026-04-28 14:46 45.10235 17.55818 31072 ft 448 kts 135°
2026-04-28 14:47 45.06022 17.62310 31074 ft 447 kts 135°
2026-04-28 14:47 45.01806 17.68790 31072 ft 447 kts 135°
2026-04-28 14:48 44.97596 17.75245 31071 ft 447 kts 135°
2026-04-28 14:48 44.93388 17.81682 31066 ft 446 kts 135°
2026-04-28 14:49 44.89172 17.88118 31065 ft 446 kts 135°
2026-04-28 14:49 44.85668 17.93455 31064 ft 446 kts 135°
2026-04-28 14:50 44.81448 17.99869 31061 ft 446 kts 135°
2026-04-28 14:50 44.77221 18.06278 31057 ft 446 kts 135°
2026-04-28 14:51 44.73000 18.12664 31053 ft 445 kts 135°
2026-04-28 14:51 44.68782 18.19031 31057 ft 445 kts 135°
2026-04-28 14:52 44.64556 18.25395 31053 ft 445 kts 135°
2026-04-28 14:52 44.60328 18.31747 31058 ft 445 kts 135°
2026-04-28 14:53 44.56094 18.38094 31055 ft 445 kts 135°
2026-04-28 14:53 44.51865 18.44419 31066 ft 445 kts 135°
2026-04-28 14:54 44.47621 18.50752 31065 ft 445 kts 135°
2026-04-28 14:54 44.43381 18.57065 31072 ft 445 kts 135°
2026-04-28 14:55 44.39136 18.63371 31078 ft 445 kts 135°
2026-04-28 14:55 44.34911 18.69632 31076 ft 445 kts 135°
2026-04-28 14:56 44.30661 18.75917 31070 ft 445 kts 135°
2026-04-28 14:56 44.26411 18.82188 31053 ft 444 kts 136°
2026-04-28 14:57 44.22162 18.88445 31054 ft 444 kts 136°
2026-04-28 14:57 44.17903 18.94700 31045 ft 444 kts 136°
2026-04-28 14:58 44.13645 19.00940 31037 ft 444 kts 136°
2026-04-28 14:58 44.09383 19.07171 31039 ft 443 kts 136°
2026-04-28 14:59 44.05130 19.13376 31036 ft 443 kts 136°
2026-04-28 14:59 44.00878 19.19566 31034 ft 443 kts 136°
2026-04-28 15:00 43.96650 19.25708 31041 ft 442 kts 136°
2026-04-28 15:00 43.92394 19.31875 31037 ft 442 kts 136°
2026-04-28 15:01 43.88140 19.38028 31031 ft 441 kts 136°